Track STARLINK-3286 now! 10-day predictions STARLINK-3286 is classified as:
1 50171U 21125R 22223.79443758 .00002883 00000-0 19933-3 0 9992 2 50171 53.2195 351.5113 0001663 57.3617 302.7535 15.08813175 38965